Location: Caltech
(34.1382°N, 118.1253°W)
Time: 17:35:29
(UTC-07:00)

SL-16 R/B - Visible Passes

Search period start: 22 August 2017 00:00
Search period end: 01 September 2017 00:00
Orbit: 842 x 846 km, 71.0° (Epoch: 22 August)

Date Brightness Start Highest point End Pass type
(mag) Time Alt. Az. Time Alt. Az. Time Alt. Az.
22 Aug 5.2 05:07:45 10° NNE 05:11:35 18° ENE 05:15:22 10° E visible
22 Aug 2.2 19:54:05 10° S 19:59:41 67° ESE 20:05:19 10° NNE visible
22 Aug 5.2 21:41:01 10° W 21:44:16 15° NW 21:47:33 10° NNW visible
23 Aug 5.2 04:53:34 10° NNE 04:57:16 17° ENE 05:00:57 10° E visible
23 Aug 5.2 21:26:34 10° W 21:29:59 16° NW 21:33:24 10° NNW visible
24 Aug 5.2 04:39:24 10° NNE 04:42:59 17° ENE 04:46:32 10° E visible
24 Aug 5.2 21:12:09 10° W 21:15:41 17° NW 21:19:14 10° NNW visible
25 Aug 5.2 04:25:15 10° NNE 04:28:41 16° NE 04:32:07 10° E visible
25 Aug 5.2 20:57:43 10° W 21:01:23 17° WNW 21:05:04 10° NNW visible
26 Aug 5.2 04:11:06 10° NNE 04:14:23 15° NE 04:17:40 10° E visible
26 Aug 2.2 05:53:21 10° NNW 05:58:59 67° WSW 06:04:35 10° S visible
26 Aug 5.2 20:43:18 10° W 20:47:06 18° WNW 20:50:54 10° NNW visible
27 Aug 5.2 03:56:57 10° NNE 04:00:05 15° NE 04:03:13 10° E visible
27 Aug 2.2 05:39:04 10° NNW 05:44:43 70° WSW 05:50:20 10° S visible
27 Aug 5.1 20:28:54 10° W 20:32:48 19° WNW 20:36:43 10° NNW visible
28 Aug 5.1 03:42:49 10° NNE 03:45:47 14° NE 03:48:45 10° E visible
28 Aug 2.1 05:24:48 10° NNW 05:30:28 73° WSW 05:36:05 10° SSE visible
28 Aug 5.1 20:14:30 10° WSW 20:18:30 19° WNW 20:22:32 10° NNW visible
29 Aug 5.1 03:28:41 10° NNE 03:31:29 14° NE 03:34:17 10° E visible
29 Aug 2.1 05:10:31 10° NNW 05:16:12 76° WSW 05:21:50 10° SSE visible
29 Aug 5.0 20:00:07 10° WSW 20:04:13 20° WNW 20:08:21 10° N visible
30 Aug 5.1 03:14:35 10° NNE 03:17:12 13° NE 03:19:48 10° E visible
30 Aug 2.1 04:56:15 10° NNW 05:01:56 80° WSW 05:07:35 10° SSE visible
30 Aug 5.0 19:45:44 10° WSW 19:49:55 21° WNW 19:54:10 10° N visible
31 Aug 5.1 03:00:29 10° NNE 03:02:54 13° NE 03:05:17 10° E visible
31 Aug 2.1 04:41:59 10° NNW 04:47:40 83° WSW 04:53:20 10° SSE visible
